Weather History for Fitchburg, MA

Change the Weather History Date:

Sunday, March 16, 2014

  Actual Average (KORH) Record (KORH)
Temperature  
Mean Temperature 28 °F 34 °F  
Max Temperature 33 °F 43 °F 76 °F (1990)
Min Temperature 21 °F 26 °F 6 °F (1992)
Degree Days  
Heating Degree Days 36 30  
Month to date heating degree days 524  
Since 1 July heating degree days 5361  
Cooling Degree Days 0 0  
Month to date cooling degree days 0  
Year to date cooling degree days 0  
Moisture  
Dew Point 7 °F    
Average Humidity 41    
Maximum Humidity 55    
Minimum Humidity 29    
Precipitation  
Precipitation 0.00 in 0.13 in 1.43 in (1974)
Month to date precipitation 2.03  
Year to date precipitation 8.75  
Snow  
Snow 0.00 in 0.40 in 11.30 in (2007)
Month to date snowfall 7.0  
Since 1 July snowfall 56.9  
Snow Depth -    
Sea Level Pressure  
Sea Level Pressure 30.09 in    
Wind  
Wind Speed 12 mph (WNW)    
Max Wind Speed 18 mph    
Max Gust Speed 26 mph    
Visibility 10 miles    
Events      
T = Trace of Precipitation, MM = Missing Value Source: NWS Daily Summary

Daily Weather History Graph

Daily Weather History Graph

Search for Another Location

Airport:

Trip Planner

Search our weather history database for the weather conditions in past years. The results will help you decide how hot, cold, wet, or windy it might be!

Date:

Astronomy

Mar. 16, 2014 Rise Set
Actual Time 6:57 AM EDT 6:54 PM EDT
Civil Twilight 6:29 AM EDT 7:22 PM EDT
Nautical Twilight 5:56 AM EDT 7:55 PM EDT
Astronomical Twilight 5:23 AM EDT 8:28 PM EDT
Moon 7:10 PM EDT (3/16) 6:38 AM EDT (3/16)
Length of Visible Light 12h 53m
Length of Day
11h 57m
Full, 100% of the Moon is Illuminated
Mar 16
Full
Mar 16
Full
Mar 23
Last Quarter
Mar 30
New
Apr 7
First Quarter

Hourly Weather History & Observations

Time (EDT) Temp. Windchill Dew Point Humidity Pressure Visibility Wind Dir Wind Speed Gust Speed Precip Events Conditions
12:52 AM 34.0 °F 26.6 °F 14.0 °F 44% 29.93 in 10.0 mi West 9.2 mph - N/A   Clear
1:52 AM 32.0 °F 21.6 °F 14.0 °F 48% 29.94 in 10.0 mi West 15.0 mph 25.3 mph N/A   Clear
2:52 AM 30.9 °F 20.7 °F 12.9 °F 47% 29.95 in 10.0 mi WNW 13.8 mph 21.9 mph N/A   Clear
3:52 AM 30.0 °F 19.5 °F 12.9 °F 49% 29.98 in 10.0 mi West 13.8 mph 24.2 mph N/A   Clear
4:52 AM 28.9 °F 18.2 °F 12.9 °F 51% 30.00 in 10.0 mi West 13.8 mph 19.6 mph N/A   Clear
5:52 AM 27.0 °F 16.1 °F 12.0 °F 53% 30.01 in 10.0 mi West 12.7 mph 21.9 mph N/A   Clear
6:52 AM 26.1 °F 14.5 °F 12.0 °F 55% 30.04 in 10.0 mi WNW 13.8 mph 23.0 mph N/A   Clear
7:52 AM 26.1 °F 12.7 °F 10.9 °F 53% 30.07 in 10.0 mi NW 18.4 mph 24.2 mph N/A   Mostly Cloudy
8:52 AM 26.1 °F 15.0 °F 10.0 °F 51% 30.10 in 10.0 mi NW 12.7 mph 25.3 mph 0.00 in   Mostly Cloudy
9:52 AM 27.0 °F 14.7 °F 7.0 °F 43% 30.13 in 10.0 mi NW 16.1 mph 26.5 mph N/A   Mostly Cloudy
10:52 AM 28.0 °F 18.1 °F 6.1 °F 39% 30.13 in 10.0 mi NW 11.5 mph 21.9 mph N/A   Mostly Cloudy
11:52 AM 28.9 °F 18.6 °F 7.0 °F 40% 30.13 in 10.0 mi NW 12.7 mph - N/A   Partly Cloudy
12:52 PM 30.0 °F 19.1 °F 5.0 °F 35% 30.13 in 10.0 mi NW 15.0 mph 24.2 mph N/A   Clear
1:52 PM 30.0 °F 20.0 °F 3.9 °F 33% 30.13 in 10.0 mi WNW 12.7 mph 24.2 mph N/A   Clear
2:52 PM 30.9 °F 20.2 °F 3.0 °F 31% 30.11 in 10.0 mi WNW 15.0 mph - N/A   Clear
3:52 PM 30.9 °F 22.8 °F 3.0 °F 31% 30.13 in 10.0 mi WNW 9.2 mph 20.7 mph N/A   Clear
4:52 PM 30.9 °F 19.8 °F 1.9 °F 29% 30.13 in 10.0 mi NW 16.1 mph 24.2 mph N/A   Clear
5:52 PM 30.0 °F 19.1 °F 3.0 °F 32% 30.11 in 10.0 mi WNW 15.0 mph - N/A   Clear
6:52 PM 28.0 °F 19.3 °F 1.9 °F 33% 30.15 in 10.0 mi WNW 9.2 mph - N/A   Clear
7:52 PM 27.0 °F 19.5 °F 1.9 °F 34% 30.17 in 10.0 mi WNW 6.9 mph - N/A   Clear
8:52 PM 26.1 °F 19.4 °F 1.0 °F 34% 30.20 in 10.0 mi West 5.8 mph - N/A   Clear
9:52 PM 25.0 °F 17.1 °F 3.0 °F 39% 30.22 in 10.0 mi NW 6.9 mph - N/A   Clear
10:52 PM 23.0 °F 15.8 °F 1.9 °F 40% 30.20 in 10.0 mi NNW 5.8 mph - N/A   Clear
11:52 PM 21.9 °F 14.5 °F 1.0 °F 40% 30.19 in 10.0 mi NNW 5.8 mph - N/A   Clear